Погода в Котласе

Погода в Котласе : погода сейчас, прогноз погоды и архив. Всё, что Вы хотите узнать о погоде в Котласе!

Поиск расширенной информации на нашем сайте:

Другие новости

Новости СМИ2

Главная страница сайта

Новости сайта

03.07.2017

Напоминаем, что на нашем специализированном сайте Метеоцентр.Азия вы можете получить высокодетализированные автоматические прогнозы погоды по пунктам России, СНГ и мира в авиационном формате (включающие направление и скорость ветра, видимость, явления погоды, количество и форму облачности, нижнюю и верхнюю границу облачности).


Погода в Котласе - сегодня

Время (UTC), дата Ветер
(°,м/с) 
Видим.   Явления Облачность Т
(°С)
Тd
(°С)
f(%) Тe
(°С)
Pmin
(гПа)
dP
(гПа)
Po
(мм)
O2
(г/м3)
Тmin Tmax R s Состояние
почвы
21 12.10.18 330 (СЗ) 10 км    10/10 180 м 
[St]
+3.4 +2.9 97 +2  1021.2  -0.1  761  302           
00 13.10.18 310 (СЗ) 10 км    10/6 540 м средняя, верхняя 
[Sc|Ac trans|Ci fib]
+3 +1.4 89 +2  1021.9  0.7  761  303           
03 13.10.18 340 (С) 10 км  {ливн. осадки}  9/6 1000 м средняя 
[Sc|Ac trans]
+2.2 +1.2 93 +2  1022.3  0.4  761  304  -2.8    0.1    влажная 
06 13.10.18 350 (С) 20000 м  {ливн. осадки}  3/1 1000 м средняя, верхняя 
[Sc|Ac trans|Ci fib]
+2.6 -0.1 82 +1  1023.6  0.3  762  304           
09 13.10.18 340 (С) 20000 м    9/6 800 м средняя, верхняя 
[Sc|Ac trans|Ci fib]
+4 -1.5 67 +2  1024.1  0.5  763  303           
12 13.10.18 320 (СЗ) 20000 м    8/3 1000 м средняя, верхняя 
[Sc|Ac trans|Ci fib]
+5.2 -2 60 +4  1024.1  763  302           
18 13.10.18 тихо ()   10 км    3/0 верхняя 
[Ci fib]
-3.7 -4.2 96 -4  1023.9  -0.4  762  312           
21 13.10.18 тихо ()   10 км    3/0 верхняя 
[Ci fib]
-3.6 -4.1 96 -4  1024.1  0.2  763  312           
00 14.10.18 тихо ()   10 км    3/0 верхняя 
[Ci fib]
-4.6 -4.9 98 -5  1024  -0.1  763  313           
03 14.10.18 160 (Ю) 10 км    10/0 средняя, верхняя 
[Ac trans|Ci fib]
-4.6 -5.2 96 -4  1023.7  -0.3  762  313  -5.3         
06 14.10.18 180 (Ю) 20000 м    10/3 1000 м средняя 
[Sc|Ac und]
-1.4 -2.2 94 -1  1023.4  -0.1  762  309           
09 14.10.18 160 (Ю) 20000 м    10/3 1000 м средняя 
[Sc|Ac und]
+1.2 +0.1 92 +1  1022.5  -0.9  762  305           
18 14.10.18 170 (Ю) 10 км  в посл. час ливневой дождь  10/4 1000 м кучево-дожд., средняя 
[Cb cap|Ac und]
+0.8 +0 94 -2  1018.3  -1.8  758  305           
03 15.10.18 180 (Ю) 5000 м  слаб. морось  10/10 180 м 
[St]
+3 +2.2 94 +2  1015.5  -0.6  756  301  +0.5    0.5     
12 15.10.18 230 (ЮЗ) 20000 м  {морось}  ясно 
+14.1 +11.4 84 +18  1013.7  -0.8  755  287           
15 15.10.18 200 (Ю) 5000 м  местами туман поземный  ясно 
+10.9 +9.5 91 +12  1013.1  -0.7  755  291    +14.3  0.1     
18 15.10.18 200 (Ю) 6000 м  местами туман поземный  4/0 верхняя 
[Ci fib]
+9 +7.1 88 +10  1013.3  0.2  755  293           
21 15.10.18 230 (ЮЗ) 6000 м  местами туман поземный  6/0 верхняя 
[Ci fib]
+10.6 +7 78 +12  1013.5  0.2  755  292           
00 16.10.18 260 (З) 6000 м  дымка  3/0 верхняя 
[Ci fib]
+8.4 +6.4 87 +8  1013.7  0.2  755  294           
03 16.10.18 260 (З) 6000 м  дымка  4/0 верхняя 
[Ci fib]
+6.2 +5.3 94 +6  1014.4  0.6  756  297  +3.2         
06 16.10.18 220 (ЮЗ) 6000 м  дымка  ясно 
+8 +6.5 90 +8  1014.6  0.3  756  295           
12 16.10.18 180 (Ю) 20000 м    9/0 средняя, верхняя 
[Ac trans|Ci fib]
+11.8 +9 83 +12  1011.6  -2.7  754  290           
18 16.10.18 220 (ЮЗ) 10 км    6/0 средняя, верхняя 
[Ac trans|Ci fib]
+10.9 +7.4 79 +11  1006.4  -2.7  750  289           
21 16.10.18 270 (З) 10 км    10/0 средняя, верхняя 
[Ac trans|Ci fib]
+12.4 +7.3 71 +12  1006  -0.3  750  288           
03 17.10.18 300 (СЗ) 5{16}  10 км  {ливн. осадки}  10/6 800 м средняя 
[Sc|Ac und]
+5.2 +1.7 78 +3  1015.7  6.2  757  299  +5.2    0.0     
Время (UTC), дата Ветер
(°,м/с) 
Видим.   Явления Облачность Т
(°С)
Тd
(°С)
f(%) Тe
(°С)
Pmin
(гПа)
dP
(гПа)
Po
(мм)
O2
(г/м3)
Тmin Tmax R s Состояние
почвы

Для получения пояснительной информации подведите курсор к названию столбца.

ПОГОДА в Котласе - архив

Всё, что Вы хотите узнать о погоде в Котласе - удобно и подробно!

Выберите нужную дату (начиная с 1 января 2015* года) и нажмите кнопку "Найти".
Будут отображены архивные сводки погоды по пункту Котлас, начиная с указанной даты.


Отображать данные в формате CSV (для использования в таблицах Excel)


Внимание! Наш архив погоды предназначен исключительно для личного некоммерческого использования в познавательных целях. Если Вам необходимы официальные справки о состоянии погоды (для производственных, юридических, коммерческих и т.п. целей), обращайтесь в органы Росгидромета.

*Примечание: данная дата относится к архиву по метеостанциям СССР (Россия, СНГ, Балтия).
Архив по метеостанциям Зарубежной Европы и Азии (кроме Китая) хранится 10 дней, по другим регионам земного шара (Китай, Африка, Америка, Австралия, Океания) - 1 день.

Котлас - район местоположения метеостанции


Название, широта, долгота, высота метеостанции:
Котлас 61.2°ш. 46.7°д. 56 м над ур. моря [Российская Федерация]

Дополнительная информация

В oтличие oт бoльшинства пoгoдных сайтoв мы публикуем пoдрoбную метеoинфoрмацию в детальнoм прoфессиoнальнoм фoрмате.

Характеристики температуры и влажнoсти вoздуха измеряются на высoте 2 м в тени вдали oт зданий и деревьев.
Скoрoсть ветра измеряется на высoте 10 м (на урoвне рoста челoвека скoрoсть ветра ниже в 1.5-2 раза). Если метеoстанция нахoдится в гoрoде или в лесу, тo скoрoсть ветра занижена на 2-4 м/с пo сравнению с oткрытым местoм. Скoрoсть ветра над акватoриями крупных рек и oзёр, а также на вершинах хoлмoв на 2-5 м/с выше, чем в oбычных услoвиях.
Атмoсфернoе давление в разных тoчках местнoсти мoжет значительнo oтличаться oт давления на метеoстанции, в зависимoсти oт услoвий рельефа (при пoдъёме на 10 м давление пoнижается примернo на 1 мм рт.ст.).